Time,TemperatureF,DewpointF,PressureIn,WindDirection,WindDirectionDegrees,WindSpeedMPH,WindSpeedGustMPH,Humidity,HourlyPrecipIn,Conditions,Clouds,dailyrainin,SoftwareType,DateUTC
2013-02-11 00:03:00,31.0,29.0,29.31,NE,53,3.0,4.0,94,0.00,,,0.00,Meteo,2013-02-11 06:03:00,
2013-02-11 00:08:00,31.0,29.0,29.31,NE,45,2.0,3.0,94,0.00,,,0.00,Meteo,2013-02-11 06:08:00,
2013-02-11 00:13:00,31.0,29.0,29.31,ENE,68,2.0,4.0,94,0.00,,,0.00,Meteo,2013-02-11 06:13:00,
2013-02-11 00:18:00,31.0,29.0,29.31,ENE,74,2.0,4.0,94,0.00,,,0.00,Meteo,2013-02-11 06:18:00,
2013-02-11 00:23:00,31.0,29.0,29.31,ENE,60,2.0,3.0,94,0.00,,,0.00,Meteo,2013-02-11 06:23:00,
2013-02-11 00:28:00,31.0,29.0,29.31,NE,38,1.0,3.0,94,0.00,,,0.00,Meteo,2013-02-11 06:28:00,
2013-02-11 00:33:00,31.0,29.0,29.31,NNE,31,2.0,3.0,94,0.00,,,0.00,Meteo,2013-02-11 06:33:00,
2013-02-11 00:38:00,31.0,29.0,29.31,NE,46,1.0,3.0,94,0.00,,,0.00,Meteo,2013-02-11 06:38:00,
2013-02-11 00:43:00,31.0,29.0,29.30,NE,53,1.0,2.0,94,0.00,,,0.00,Meteo,2013-02-11 06:43:00,
2013-02-11 00:48:00,31.0,29.0,29.30,North,8,2.0,3.0,94,0.00,,,0.00,Meteo,2013-02-11 06:48:00,
2013-02-11 00:53:00,31.0,29.0,29.30,NNE,12,1.0,2.0,94,0.00,,,0.00,Meteo,2013-02-11 06:53:00,
2013-02-11 00:58:00,31.0,29.0,29.30,NNE,12,1.0,2.0,94,0.00,,,0.00,Meteo,2013-02-11 06:58:00,
2013-02-11 01:03:00,31.0,29.0,29.30,NNE,16,2.0,3.0,94,0.00,,,0.00,Meteo,2013-02-11 07:03:00,
2013-02-11 01:09:00,31.0,29.0,29.30,North,1,1.0,2.0,94,0.00,,,0.00,Meteo,2013-02-11 07:09:00,
2013-02-11 01:14:00,31.0,29.0,29.30,NNE,27,2.0,2.0,94,0.00,,,0.00,Meteo,2013-02-11 07:14:00,
2013-02-11 01:19:00,31.0,29.0,29.30,North,10,1.0,2.0,94,0.00,,,0.00,Meteo,2013-02-11 07:19:00,
2013-02-11 01:24:00,31.0,29.0,29.30,NNE,23,1.0,3.0,94,0.00,,,0.00,Meteo,2013-02-11 07:24:00,
2013-02-11 01:29:00,31.0,29.0,29.30,NNE,18,1.0,2.0,94,0.00,,,0.00,Meteo,2013-02-11 07:29:00,
2013-02-11 01:34:00,31.0,29.0,29.30,NNE,30,1.0,2.0,94,0.00,,,0.00,Meteo,2013-02-11 07:34:00,
2013-02-11 01:39:00,31.0,29.0,29.30,North,2,1.0,2.0,94,0.00,,,0.00,Meteo,2013-02-11 07:39:00,
2013-02-11 01:44:00,31.0,29.0,29.30,NNE,18,1.0,2.0,94,0.00,,,0.00,Meteo,2013-02-11 07:44:00,
2013-02-11 01:49:00,31.0,29.0,29.30,NNE,16,2.0,3.0,94,0.00,,,0.00,Meteo,2013-02-11 07:49:00,
2013-02-11 01:54:00,31.0,29.0,29.30,North,360,1.0,2.0,94,0.00,,,0.00,Meteo,2013-02-11 07:54:00,
2013-02-11 01:59:00,31.0,29.0,29.31,North,359,3.0,4.0,94,0.00,,,0.00,Meteo,2013-02-11 07:59:00,
2013-02-11 02:04:00,31.0,29.0,29.31,North,358,2.0,3.0,94,0.00,,,0.00,Meteo,2013-02-11 08:04:00,
2013-02-11 02:09:00,31.0,29.0,29.31,NNW,346,4.0,5.0,94,0.00,,,0.00,Meteo,2013-02-11 08:09:00,
2013-02-11 02:14:00,31.0,29.0,29.31,North,5,1.0,2.0,94,0.00,,,0.00,Meteo,2013-02-11 08:14:00,
2013-02-11 02:19:00,31.0,29.0,29.31,NNE,13,2.0,3.0,94,0.00,,,0.00,Meteo,2013-02-11 08:19:00,
2013-02-11 02:24:00,31.0,29.0,29.31,North,359,3.0,4.0,94,0.00,,,0.00,Meteo,2013-02-11 08:24:00,
2013-02-11 02:29:00,31.0,29.0,29.31,North,357,2.0,3.0,94,0.00,,,0.00,Meteo,2013-02-11 08:29:00,
2013-02-11 02:34:00,31.0,29.0,29.31,North,351,1.0,2.0,94,0.00,,,0.00,Meteo,2013-02-11 08:34:00,
2013-02-11 02:39:00,31.0,29.0,29.31,North,354,3.0,4.0,94,0.00,,,0.00,Meteo,2013-02-11 08:39:00,
2013-02-11 02:45:00,31.0,29.0,29.31,North,356,2.0,3.0,94,0.00,,,0.00,Meteo,2013-02-11 08:45:00,
2013-02-11 02:50:00,31.0,29.0,29.31,NNW,345,3.0,3.0,94,0.00,,,0.00,Meteo,2013-02-11 08:50:00,
2013-02-11 02:55:00,31.0,29.0,29.31,NNW,345,2.0,4.0,94,0.00,,,0.00,Meteo,2013-02-11 08:55:00,
2013-02-11 03:00:00,31.0,29.0,29.31,North,360,2.0,3.0,94,0.00,,,0.00,Meteo,2013-02-11 09:00:00,
2013-02-11 03:05:00,31.0,29.0,29.31,NNW,347,3.0,4.0,94,0.00,,,0.00,Meteo,2013-02-11 09:05:00,
2013-02-11 03:10:00,31.0,29.0,29.31,NNW,345,3.0,4.0,94,0.00,,,0.00,Meteo,2013-02-11 09:10:00,
2013-02-11 03:15:00,31.0,29.0,29.31,NNW,336,2.0,3.0,94,0.00,,,0.00,Meteo,2013-02-11 09:15:00,
2013-02-11 03:20:00,31.0,29.0,29.31,NNW,348,2.0,3.0,94,0.00,,,0.00,Meteo,2013-02-11 09:20:00,
2013-02-11 03:25:00,31.0,29.0,29.31,NNW,331,1.0,3.0,94,0.00,,,0.00,Meteo,2013-02-11 09:25:00,
2013-02-11 03:30:00,31.0,29.0,29.31,NNW,334,2.0,3.0,94,0.00,,,0.00,Meteo,2013-02-11 09:30:00,
2013-02-11 03:35:00,31.0,29.0,29.31,NNW,328,2.0,4.0,94,0.00,,,0.00,Meteo,2013-02-11 09:35:00,
2013-02-11 03:40:00,31.0,29.0,29.31,NNW,341,3.0,4.0,94,0.00,,,0.00,Meteo,2013-02-11 09:40:00,
2013-02-11 03:45:00,31.0,29.0,29.31,NNW,337,2.0,4.0,94,0.00,,,0.00,Meteo,2013-02-11 09:45:00,
2013-02-11 03:50:00,31.0,29.0,29.31,North,351,4.0,7.0,94,0.00,,,0.00,Meteo,2013-02-11 09:50:00,
2013-02-11 03:55:00,31.0,29.0,29.31,NNW,344,4.0,6.0,94,0.00,,,0.00,Meteo,2013-02-11 09:55:00,
2013-02-11 04:00:00,31.0,29.0,29.32,North,351,5.0,7.0,94,0.00,,,0.00,Meteo,2013-02-11 10:00:00,
2013-02-11 04:05:00,31.0,29.0,29.32,North,352,5.0,7.0,94,0.00,,,0.00,Meteo,2013-02-11 10:05:00,
2013-02-11 04:10:00,31.0,29.0,29.32,North,354,6.0,8.0,94,0.00,,,0.00,Meteo,2013-02-11 10:10:00,
2013-02-11 04:15:00,31.0,29.0,29.33,North,1,4.0,5.0,94,0.00,,,0.00,Meteo,2013-02-11 10:15:00,
2013-02-11 04:20:00,31.0,29.0,29.33,North,0,5.0,9.0,94,0.00,,,0.00,Meteo,2013-02-11 10:20:00,
2013-02-11 04:25:00,31.0,29.0,29.33,NNE,14,5.0,6.0,94,0.00,,,0.00,Meteo,2013-02-11 10:25:00,
2013-02-11 04:30:00,31.0,29.0,29.33,North,352,7.0,9.0,94,0.00,,,0.00,Meteo,2013-02-11 10:30:00,
2013-02-11 04:35:00,31.0,29.0,29.34,North,353,6.0,9.0,94,0.00,,,0.00,Meteo,2013-02-11 10:35:00,
2013-02-11 04:40:00,31.0,29.0,29.34,North,351,6.0,10.0,94,0.00,,,0.00,Meteo,2013-02-11 10:40:00,
2013-02-11 04:46:00,31.0,29.0,29.34,North,0,5.0,8.0,94,0.00,,,0.00,Meteo,2013-02-11 10:46:00,
2013-02-11 04:51:00,31.0,29.0,29.35,North,360,5.0,7.0,94,0.00,,,0.00,Meteo,2013-02-11 10:51:00,
2013-02-11 04:56:00,31.0,29.0,29.35,NNW,343,5.0,7.0,94,0.00,,,0.00,Meteo,2013-02-11 10:56:00,
2013-02-11 05:01:00,31.0,29.0,29.35,North,355,3.0,5.0,94,0.00,,,0.00,Meteo,2013-02-11 11:01:00,
2013-02-11 05:06:00,30.0,28.0,29.36,NNW,346,4.0,6.0,94,0.00,,,0.00,Meteo,2013-02-11 11:06:00,
2013-02-11 05:11:00,30.0,28.0,29.36,North,357,4.0,7.0,94,0.00,,,0.00,Meteo,2013-02-11 11:11:00,
2013-02-11 05:16:00,30.0,28.0,29.36,NNW,348,4.0,5.0,94,0.00,,,0.00,Meteo,2013-02-11 11:16:00,
2013-02-11 05:21:00,30.0,28.0,29.37,NNW,346,3.0,5.0,94,0.00,,,0.00,Meteo,2013-02-11 11:21:00,
2013-02-11 05:26:00,30.0,28.0,29.37,North,355,3.0,5.0,94,0.00,,,0.00,Meteo,2013-02-11 11:26:00,
2013-02-11 05:31:00,30.0,28.0,29.37,North,352,3.0,4.0,94,0.00,,,0.00,Meteo,2013-02-11 11:31:00,
2013-02-11 05:36:00,30.0,28.0,29.38,NNW,339,6.0,10.0,94,0.00,,,0.00,Meteo,2013-02-11 11:36:00,
2013-02-11 05:41:00,30.0,28.0,29.38,NNW,337,3.0,6.0,94,0.00,,,0.00,Meteo,2013-02-11 11:41:00,
2013-02-11 05:46:00,30.0,28.0,29.38,NNW,342,3.0,5.0,94,0.00,,,0.00,Meteo,2013-02-11 11:46:00,
2013-02-11 05:51:00,30.0,28.0,29.38,NNW,336,3.0,4.0,94,0.00,,,0.00,Meteo,2013-02-11 11:51:00,
2013-02-11 05:56:00,30.0,28.0,29.39,NNW,329,3.0,6.0,94,0.00,,,0.00,Meteo,2013-02-11 11:56:00,
2013-02-11 06:01:00,30.0,28.0,29.39,NNW,332,4.0,6.0,94,0.00,,,0.00,Meteo,2013-02-11 12:01:00,
2013-02-11 06:06:00,30.0,28.0,29.39,NNW,346,4.0,6.0,94,0.00,,,0.00,Meteo,2013-02-11 12:06:00,
2013-02-11 06:11:00,30.0,28.0,29.40,NW,322,6.0,9.0,94,0.00,,,0.00,Meteo,2013-02-11 12:11:00,
2013-02-11 06:16:00,29.0,27.0,29.40,NNW,329,5.0,8.0,94,0.00,,,0.00,Meteo,2013-02-11 12:16:00,
2013-02-11 06:21:00,29.0,27.0,29.41,NNW,341,5.0,9.0,94,0.00,,,0.00,Meteo,2013-02-11 12:21:00,
2013-02-11 06:26:00,29.0,27.0,29.41,NNW,327,5.0,7.0,94,0.00,,,0.00,Meteo,2013-02-11 12:26:00,
2013-02-11 06:31:00,29.0,27.0,29.42,NNW,337,6.0,8.0,94,0.00,,,0.00,Meteo,2013-02-11 12:31:00,
2013-02-11 06:36:00,29.0,27.0,29.42,NNW,336,4.0,6.0,94,0.00,,,0.00,Meteo,2013-02-11 12:36:00,
2013-02-11 06:42:00,29.0,27.0,29.42,NNW,329,6.0,9.0,94,0.00,,,0.00,Meteo,2013-02-11 12:42:00,
2013-02-11 06:47:00,29.0,27.0,29.43,NNW,327,4.0,6.0,94,0.00,,,0.00,Meteo,2013-02-11 12:47:00,
2013-02-11 06:52:00,29.0,27.0,29.43,NNW,327,6.0,10.0,93,0.00,,,0.00,Meteo,2013-02-11 12:52:00,
2013-02-11 06:57:00,29.0,27.0,29.44,NNW,331,5.0,7.0,93,0.00,,,0.00,Meteo,2013-02-11 12:57:00,
2013-02-11 07:02:00,29.0,27.0,29.44,NNW,338,4.0,6.0,93,0.00,,,0.00,Meteo,2013-02-11 13:02:00,
2013-02-11 07:07:00,29.0,27.0,29.45,NNW,335,5.0,7.0,93,0.00,,,0.00,Meteo,2013-02-11 13:07:00,
2013-02-11 07:12:00,29.0,27.0,29.45,NNW,336,4.0,6.0,93,0.00,,,0.00,Meteo,2013-02-11 13:12:00,
2013-02-11 07:17:00,28.0,26.0,29.45,NNW,329,5.0,7.0,93,0.00,,,0.00,Meteo,2013-02-11 13:17:00,
2013-02-11 07:23:00,28.0,26.0,29.46,NNW,340,4.0,7.0,93,0.00,,,0.00,Meteo,2013-02-11 13:23:00,
2013-02-11 07:28:00,28.0,26.0,29.46,NNW,344,4.0,6.0,93,0.00,,,0.00,Meteo,2013-02-11 13:28:00,
2013-02-11 07:33:00,28.0,26.0,29.47,NNW,341,5.0,8.0,92,0.00,,,0.00,Meteo,2013-02-11 13:33:00,
2013-02-11 07:38:00,28.0,26.0,29.47,NNW,332,6.0,8.0,92,0.00,,,0.00,Meteo,2013-02-11 13:38:00,
2013-02-11 07:43:00,28.0,26.0,29.47,NNW,338,3.0,5.0,92,0.00,,,0.00,Meteo,2013-02-11 13:43:00,
2013-02-11 07:49:00,28.0,26.0,29.48,NNW,335,4.0,8.0,91,0.00,,,0.00,Meteo,2013-02-11 13:49:00,
2013-02-11 07:54:00,27.0,25.0,29.48,NNW,332,5.0,7.0,92,0.00,,,0.00,Meteo,2013-02-11 13:54:00,
2013-02-11 07:59:00,27.0,25.0,29.49,NNW,327,5.0,6.0,92,0.00,,,0.00,Meteo,2013-02-11 13:59:00,
2013-02-11 08:04:00,27.0,25.0,29.49,NNW,331,4.0,5.0,91,0.00,,,0.00,Meteo,2013-02-11 14:04:00,
2013-02-11 08:09:00,27.0,25.0,29.49,NNW,333,2.0,3.0,91,0.00,,,0.00,Meteo,2013-02-11 14:09:00,
2013-02-11 08:14:00,27.0,25.0,29.49,NW,323,3.0,5.0,91,0.00,,,0.00,Meteo,2013-02-11 14:14:00,
2013-02-11 08:19:00,27.0,25.0,29.50,NW,323,2.0,4.0,91,0.00,,,0.00,Meteo,2013-02-11 14:19:00,
2013-02-11 08:24:00,27.0,25.0,29.50,NNW,331,5.0,8.0,91,0.00,,,0.00,Meteo,2013-02-11 14:24:00,
2013-02-11 08:29:00,27.0,25.0,29.51,NW,311,3.0,6.0,91,0.00,,,0.00,Meteo,2013-02-11 14:29:00,
2013-02-11 08:34:00,27.0,25.0,29.51,NNW,327,5.0,7.0,91,0.00,,,0.00,Meteo,2013-02-11 14:34:00,
2013-02-11 08:40:00,27.0,25.0,29.52,NNW,342,3.0,5.0,91,0.00,,,0.00,Meteo,2013-02-11 14:40:00,
2013-02-11 08:46:00,27.0,25.0,29.52,NNW,332,3.0,5.0,91,0.00,,,0.00,Meteo,2013-02-11 14:46:00,
2013-02-11 08:51:00,27.0,25.0,29.52,NNW,333,3.0,4.0,91,0.00,,,0.00,Meteo,2013-02-11 14:51:00,
2013-02-11 08:56:00,27.0,24.0,29.52,WNW,303,3.0,4.0,90,0.00,,,0.00,Meteo,2013-02-11 14:56:00,
2013-02-11 09:02:00,27.0,24.0,29.52,NNW,329,2.0,3.0,90,0.00,,,0.00,Meteo,2013-02-11 15:02:00,
2013-02-11 09:07:00,27.0,24.0,29.53,NNW,334,4.0,6.0,90,0.00,,,0.00,Meteo,2013-02-11 15:07:00,
2013-02-11 09:12:00,27.0,24.0,29.53,NW,318,4.0,6.0,90,0.00,,,0.00,Meteo,2013-02-11 15:12:00,
2013-02-11 09:17:00,27.0,24.0,29.54,NNW,327,5.0,8.0,90,0.00,,,0.00,Meteo,2013-02-11 15:17:00,
2013-02-11 09:22:00,26.0,23.0,29.54,NNW,330,3.0,6.0,89,0.00,,,0.00,Meteo,2013-02-11 15:22:00,
2013-02-11 09:27:00,26.0,23.0,29.54,NNW,336,4.0,7.0,89,0.00,,,0.00,Meteo,2013-02-11 15:27:00,
2013-02-11 09:32:00,26.0,23.0,29.55,NW,326,3.0,5.0,89,0.00,,,0.00,Meteo,2013-02-11 15:32:00,
2013-02-11 09:37:00,26.0,23.0,29.55,NW,317,2.0,3.0,89,0.00,,,0.00,Meteo,2013-02-11 15:37:00,
2013-02-11 09:42:00,26.0,23.0,29.55,NW,317,3.0,4.0,89,0.00,,,0.00,Meteo,2013-02-11 15:42:00,
2013-02-11 09:47:00,26.0,23.0,29.55,NW,319,3.0,4.0,89,0.00,,,0.00,Meteo,2013-02-11 15:47:00,
2013-02-11 09:52:00,26.0,23.0,29.55,NW,319,1.0,3.0,89,0.00,,,0.00,Meteo,2013-02-11 15:52:00,
2013-02-11 09:57:00,27.0,24.0,29.56,NNW,330,3.0,5.0,89,0.00,,,0.00,Meteo,2013-02-11 15:57:00,
2013-02-11 10:02:00,26.0,23.0,29.56,NW,323,2.0,3.0,89,0.00,,,0.00,Meteo,2013-02-11 16:02:00,
2013-02-11 10:07:00,26.0,23.0,29.57,NW,310,3.0,4.0,88,0.00,,,0.00,Meteo,2013-02-11 16:07:00,
2013-02-11 10:12:00,27.0,24.0,29.57,WNW,295,3.0,5.0,89,0.00,,,0.00,Meteo,2013-02-11 16:12:00,
2013-02-11 10:17:00,26.0,23.0,29.57,NW,313,3.0,5.0,88,0.00,,,0.00,Meteo,2013-02-11 16:17:00,
2013-02-11 10:22:00,26.0,23.0,29.57,NW,304,3.0,4.0,88,0.00,,,0.00,Meteo,2013-02-11 16:22:00,
2013-02-11 10:27:00,26.0,23.0,29.58,NW,308,2.0,4.0,88,0.00,,,0.00,Meteo,2013-02-11 16:27:00,
2013-02-11 10:32:00,26.0,23.0,29.58,NW,306,3.0,6.0,88,0.00,,,0.00,Meteo,2013-02-11 16:32:00,
2013-02-11 10:37:00,26.0,23.0,29.58,NW,309,2.0,4.0,87,0.00,,,0.00,Meteo,2013-02-11 16:37:00,
2013-02-11 10:42:00,26.0,23.0,29.59,NW,318,3.0,5.0,87,0.00,,,0.00,Meteo,2013-02-11 16:42:00,
2013-02-11 10:47:00,26.0,23.0,29.59,NW,317,3.0,4.0,88,0.00,,,0.00,Meteo,2013-02-11 16:47:00,
2013-02-11 10:52:00,26.0,23.0,29.59,WNW,299,3.0,5.0,87,0.00,,,0.00,Meteo,2013-02-11 16:52:00,
2013-02-11 10:57:00,26.0,23.0,29.60,NW,324,1.0,2.0,88,0.00,,,0.00,Meteo,2013-02-11 16:57:00,
2013-02-11 11:02:00,26.0,23.0,29.60,NNW,327,2.0,4.0,87,0.00,,,0.00,Meteo,2013-02-11 17:02:00,
2013-02-11 11:08:00,26.0,23.0,29.60,NNW,329,2.0,4.0,87,0.00,,,0.00,Meteo,2013-02-11 17:08:00,
2013-02-11 11:13:00,26.0,22.0,29.60,NW,315,3.0,4.0,86,0.00,,,0.00,Meteo,2013-02-11 17:13:00,
2013-02-11 11:18:00,26.0,22.0,29.60,NW,318,3.0,4.0,85,0.00,,,0.00,Meteo,2013-02-11 17:18:00,
2013-02-11 11:23:00,26.0,22.0,29.61,NNW,331,2.0,5.0,86,0.00,,,0.00,Meteo,2013-02-11 17:23:00,
2013-02-11 11:28:00,26.0,22.0,29.61,NNW,338,3.0,5.0,86,0.00,,,0.00,Meteo,2013-02-11 17:28:00,
2013-02-11 11:33:00,26.0,22.0,29.61,WNW,302,1.0,2.0,86,0.00,,,0.00,Meteo,2013-02-11 17:33:00,
2013-02-11 11:38:00,26.0,22.0,29.62,NW,308,5.0,9.0,85,0.00,,,0.00,Meteo,2013-02-11 17:38:00,
2013-02-11 11:43:00,26.0,22.0,29.62,NW,312,6.0,9.0,85,0.00,,,0.00,Meteo,2013-02-11 17:43:00,
2013-02-11 11:48:00,26.0,22.0,29.62,WNW,292,2.0,5.0,84,0.00,,,0.00,Meteo,2013-02-11 17:48:00,
2013-02-11 11:53:00,26.0,21.0,29.62,NW,316,4.0,7.0,82,0.00,,,0.00,Meteo,2013-02-11 17:53:00,
2013-02-11 11:58:00,26.0,22.0,29.63,NW,315,4.0,6.0,83,0.00,,,0.00,Meteo,2013-02-11 17:58:00,
2013-02-11 12:03:00,26.0,22.0,29.63,NW,306,3.0,6.0,83,0.00,,,0.00,Meteo,2013-02-11 18:03:00,
2013-02-11 12:08:00,26.0,22.0,29.63,WNW,302,1.0,2.0,83,0.00,,,0.00,Meteo,2013-02-11 18:08:00,
2013-02-11 12:13:00,26.0,22.0,29.63,WNW,299,2.0,4.0,83,0.00,,,0.00,Meteo,2013-02-11 18:13:00,
2013-02-11 12:18:00,26.0,21.0,29.63,WNW,303,5.0,8.0,81,0.00,,,0.00,Meteo,2013-02-11 18:18:00,
2013-02-11 12:24:00,26.0,22.0,29.63,NW,321,2.0,4.0,83,0.00,,,0.00,Meteo,2013-02-11 18:24:00,
2013-02-11 12:29:00,26.0,22.0,29.64,NW,318,4.0,8.0,83,0.00,,,0.00,Meteo,2013-02-11 18:29:00,
2013-02-11 12:34:00,26.0,21.0,29.64,NW,314,4.0,8.0,82,0.00,,,0.00,Meteo,2013-02-11 18:34:00,
2013-02-11 12:39:00,26.0,21.0,29.64,NW,306,3.0,7.0,82,0.00,,,0.00,Meteo,2013-02-11 18:39:00,
2013-02-11 12:44:00,26.0,21.0,29.64,NW,312,4.0,6.0,82,0.00,,,0.00,Meteo,2013-02-11 18:44:00,
2013-02-11 12:49:00,26.0,21.0,29.64,NW,314,6.0,10.0,81,0.00,,,0.00,Meteo,2013-02-11 18:49:00,
2013-02-11 12:54:00,26.0,21.0,29.64,NW,305,4.0,6.0,80,0.00,,,0.00,Meteo,2013-02-11 18:54:00,
2013-02-11 12:59:00,26.0,20.0,29.65,WNW,303,7.0,12.0,77,0.00,,,0.00,Meteo,2013-02-11 18:59:00,
2013-02-11 13:04:00,26.0,20.0,29.65,NW,311,4.0,7.0,78,0.00,,,0.00,Meteo,2013-02-11 19:04:00,
2013-02-11 13:09:00,26.0,20.0,29.65,NW,317,7.0,10.0,79,0.00,,,0.00,Meteo,2013-02-11 19:09:00,
2013-02-11 13:14:00,26.0,20.0,29.65,WNW,301,3.0,8.0,79,0.00,,,0.00,Meteo,2013-02-11 19:14:00,
2013-02-11 13:19:00,26.0,21.0,29.65,NW,305,4.0,9.0,80,0.00,,,0.00,Meteo,2013-02-11 19:19:00,
2013-02-11 13:24:00,26.0,20.0,29.65,NW,312,6.0,10.0,79,0.00,,,0.00,Meteo,2013-02-11 19:24:00,
2013-02-11 13:29:00,27.0,21.0,29.66,WNW,298,3.0,5.0,79,0.00,,,0.00,Meteo,2013-02-11 19:29:00,
2013-02-11 13:34:00,27.0,21.0,29.66,NW,313,3.0,6.0,79,0.00,,,0.00,Meteo,2013-02-11 19:34:00,
2013-02-11 13:39:00,27.0,22.0,29.66,NW,312,3.0,7.0,81,0.00,,,0.00,Meteo,2013-02-11 19:39:00,
2013-02-11 13:44:00,27.0,22.0,29.66,NW,312,3.0,6.0,80,0.00,,,0.00,Meteo,2013-02-11 19:44:00,
2013-02-11 13:49:00,27.0,22.0,29.67,WNW,300,1.0,3.0,81,0.00,,,0.00,Meteo,2013-02-11 19:49:00,
2013-02-11 13:54:00,27.0,22.0,29.67,NW,307,5.0,9.0,80,0.00,,,0.00,Meteo,2013-02-11 19:54:00,
2013-02-11 13:59:00,26.0,20.0,29.68,WNW,295,3.0,11.0,78,0.00,,,0.00,Meteo,2013-02-11 19:59:00,
2013-02-11 14:04:00,26.0,21.0,29.68,West,278,2.0,6.0,81,0.00,,,0.00,Meteo,2013-02-11 20:04:00,
2013-02-11 14:09:00,26.0,21.0,29.68,NW,314,5.0,14.0,81,0.00,,,0.00,Meteo,2013-02-11 20:09:00,
2013-02-11 14:15:00,26.0,21.0,29.68,WNW,295,3.0,9.0,81,0.00,,,0.00,Meteo,2013-02-11 20:15:00,
2013-02-11 14:20:00,26.0,20.0,29.68,WNW,301,5.0,10.0,79,0.00,,,0.00,Meteo,2013-02-11 20:20:00,
2013-02-11 14:25:00,26.0,20.0,29.69,WNW,301,3.0,9.0,79,0.00,,,0.00,Meteo,2013-02-11 20:25:00,
2013-02-11 14:30:00,26.0,21.0,29.69,NW,304,3.0,8.0,80,0.00,,,0.00,Meteo,2013-02-11 20:30:00,
2013-02-11 14:35:00,26.0,21.0,29.70,WNW,291,3.0,7.0,80,0.00,,,0.00,Meteo,2013-02-11 20:35:00,
2013-02-11 14:40:00,26.0,20.0,29.70,West,274,2.0,6.0,78,0.00,,,0.00,Meteo,2013-02-11 20:40:00,
2013-02-11 14:45:00,26.0,20.0,29.70,West,272,2.0,5.0,78,0.00,,,0.00,Meteo,2013-02-11 20:45:00,
2013-02-11 14:50:00,26.0,19.0,29.70,West,277,4.0,6.0,75,0.00,,,0.00,Meteo,2013-02-11 20:50:00,
2013-02-11 14:55:00,26.0,20.0,29.71,WNW,288,3.0,8.0,78,0.00,,,0.00,Meteo,2013-02-11 20:55:00,
2013-02-11 15:00:00,26.0,20.0,29.71,WNW,298,4.0,12.0,79,0.00,,,0.00,Meteo,2013-02-11 21:00:00,
2013-02-11 15:05:00,26.0,21.0,29.72,WNW,282,3.0,7.0,80,0.00,,,0.00,Meteo,2013-02-11 21:05:00,
2013-02-11 15:10:00,26.0,21.0,29.72,NW,307,2.0,4.0,81,0.00,,,0.00,Meteo,2013-02-11 21:10:00,
2013-02-11 15:15:00,26.0,21.0,29.72,WNW,289,2.0,5.0,80,0.00,,,0.00,Meteo,2013-02-11 21:15:00,
2013-02-11 15:20:00,26.0,21.0,29.73,NW,307,4.0,6.0,81,0.00,,,0.00,Meteo,2013-02-11 21:20:00,
2013-02-11 15:25:00,25.0,20.0,29.73,NW,324,2.0,11.0,81,0.00,,,0.00,Meteo,2013-02-11 21:25:00,
2013-02-11 15:30:00,25.0,19.0,29.73,NW,311,5.0,9.0,79,0.00,,,0.00,Meteo,2013-02-11 21:30:00,
2013-02-11 15:35:00,25.0,20.0,29.73,WNW,302,3.0,6.0,81,0.00,,,0.00,Meteo,2013-02-11 21:35:00,
2013-02-11 15:40:00,25.0,19.0,29.74,West,279,3.0,7.0,79,0.00,,,0.00,Meteo,2013-02-11 21:40:00,
2013-02-11 15:45:00,25.0,20.0,29.74,NW,316,2.0,4.0,81,0.00,,,0.00,Meteo,2013-02-11 21:45:00,
2013-02-11 15:50:00,25.0,20.0,29.74,West,264,2.0,3.0,80,0.00,,,0.00,Meteo,2013-02-11 21:50:00,
2013-02-11 15:55:00,25.0,20.0,29.74,WNW,296,2.0,8.0,80,0.00,,,0.00,Meteo,2013-02-11 21:55:00,
2013-02-11 16:00:00,25.0,20.0,29.75,NW,305,4.0,8.0,81,0.00,,,0.00,Meteo,2013-02-11 22:00:00,
2013-02-11 16:05:00,25.0,20.0,29.75,WNW,287,3.0,5.0,81,0.00,,,0.00,Meteo,2013-02-11 22:05:00,
2013-02-11 16:10:00,25.0,20.0,29.75,WSW,243,1.0,4.0,80,0.00,,,0.00,Meteo,2013-02-11 22:10:00,
2013-02-11 16:15:00,25.0,20.0,29.76,NW,319,1.0,2.0,80,0.00,,,0.00,Meteo,2013-02-11 22:15:00,
2013-02-11 16:20:00,24.0,19.0,29.76,NW,311,2.0,4.0,80,0.00,,,0.00,Meteo,2013-02-11 22:20:00,
2013-02-11 16:25:00,24.0,19.0,29.76,WNW,296,1.0,3.0,80,0.00,,,0.00,Meteo,2013-02-11 22:25:00,
2013-02-11 16:30:00,24.0,19.0,29.77,WNW,294,2.0,4.0,80,0.00,,,0.00,Meteo,2013-02-11 22:30:00,
2013-02-11 16:35:00,24.0,19.0,29.77,WNW,299,1.0,1.0,81,0.00,,,0.00,Meteo,2013-02-11 22:35:00,
2013-02-11 16:40:00,24.0,19.0,29.77,NW,305,3.0,8.0,81,0.00,,,0.00,Meteo,2013-02-11 22:40:00,
2013-02-11 16:45:00,24.0,19.0,29.77,NW,313,3.0,7.0,81,0.00,,,0.00,Meteo,2013-02-11 22:45:00,
2013-02-11 16:50:00,24.0,19.0,29.77,WNW,286,3.0,6.0,80,0.00,,,0.00,Meteo,2013-02-11 22:50:00,
2013-02-11 16:55:00,24.0,19.0,29.77,WNW,296,3.0,8.0,80,0.00,,,0.00,Meteo,2013-02-11 22:55:00,
2013-02-11 17:00:00,24.0,19.0,29.78,WNW,301,1.0,3.0,82,0.00,,,0.00,Meteo,2013-02-11 23:00:00,
2013-02-11 17:05:00,23.0,18.0,29.78,NW,307,0.0,1.0,82,0.00,,,0.00,Meteo,2013-02-11 23:05:00,
2013-02-11 17:11:00,23.0,18.0,29.78,NW,323,0.0,2.0,81,0.00,,,0.00,Meteo,2013-02-11 23:11:00,
2013-02-11 17:16:00,23.0,18.0,29.78,NW,320,1.0,2.0,82,0.00,,,0.00,Meteo,2013-02-11 23:16:00,
2013-02-11 17:21:00,23.0,18.0,29.79,NW,316,1.0,3.0,82,0.00,,,0.00,Meteo,2013-02-11 23:21:00,
2013-02-11 17:26:00,23.0,18.0,29.79,WNW,295,1.0,3.0,82,0.00,,,0.00,Meteo,2013-02-11 23:26:00,
2013-02-11 17:31:00,23.0,18.0,29.79,North,0,0.0,0.0,82,0.00,,,0.00,Meteo,2013-02-11 23:31:00,
2013-02-11 17:36:00,23.0,18.0,29.80,WNW,295,1.0,3.0,82,0.00,,,0.00,Meteo,2013-02-11 23:36:00,
2013-02-11 17:41:00,23.0,18.0,29.80,WNW,287,1.0,2.0,82,0.00,,,0.00,Meteo,2013-02-11 23:41:00,
2013-02-11 17:46:00,23.0,18.0,29.80,NW,308,2.0,5.0,82,0.00,,,0.00,Meteo,2013-02-11 23:46:00,
2013-02-11 17:51:00,24.0,19.0,29.81,NW,308,2.0,3.0,81,0.00,,,0.00,Meteo,2013-02-11 23:51:00,
2013-02-11 17:56:00,24.0,19.0,29.81,WNW,301,2.0,4.0,81,0.00,,,0.00,Meteo,2013-02-11 23:56:00,
2013-02-11 18:01:00,24.0,19.0,29.81,WNW,301,5.0,10.0,81,0.00,,,0.00,Meteo,2013-02-12 00:01:00,
2013-02-11 18:06:00,24.0,19.0,29.81,WNW,303,1.0,3.0,80,0.00,,,0.00,Meteo,2013-02-12 00:06:00,
2013-02-11 18:11:00,24.0,19.0,29.82,WNW,288,3.0,7.0,80,0.00,,,0.00,Meteo,2013-02-12 00:11:00,
2013-02-11 18:16:00,24.0,19.0,29.82,WNW,295,2.0,4.0,80,0.00,,,0.00,Meteo,2013-02-12 00:16:00,
2013-02-11 18:21:00,24.0,19.0,29.83,WNW,297,2.0,2.0,81,0.00,,,0.00,Meteo,2013-02-12 00:21:00,
2013-02-11 18:26:00,24.0,18.0,29.83,WNW,299,1.0,3.0,79,0.00,,,0.00,Meteo,2013-02-12 00:26:00,
2013-02-11 18:31:00,24.0,18.0,29.83,West,278,2.0,3.0,79,0.00,,,0.00,Meteo,2013-02-12 00:31:00,
2013-02-11 18:36:00,24.0,18.0,29.84,WNW,298,2.0,7.0,79,0.00,,,0.00,Meteo,2013-02-12 00:36:00,
2013-02-11 18:41:00,24.0,18.0,29.84,WNW,293,0.0,1.0,79,0.00,,,0.00,Meteo,2013-02-12 00:41:00,
2013-02-11 18:46:00,24.0,19.0,29.84,NW,305,1.0,2.0,80,0.00,,,0.00,Meteo,2013-02-12 00:46:00,
2013-02-11 18:51:00,24.0,19.0,29.84,WNW,290,1.0,2.0,81,0.00,,,0.00,Meteo,2013-02-12 00:51:00,
2013-02-11 18:56:00,24.0,18.0,29.85,WNW,295,3.0,5.0,78,0.00,,,0.00,Meteo,2013-02-12 00:56:00,
2013-02-11 19:01:00,24.0,18.0,29.85,NNW,331,2.0,6.0,79,0.00,,,0.00,Meteo,2013-02-12 01:01:00,
2013-02-11 19:06:00,24.0,18.0,29.85,WSW,257,0.0,1.0,78,0.00,,,0.00,Meteo,2013-02-12 01:06:00,
2013-02-11 19:11:00,23.0,17.0,29.85,NW,305,0.0,1.0,79,0.00,,,0.00,Meteo,2013-02-12 01:11:00,
2013-02-11 19:16:00,23.0,17.0,29.85,NW,312,2.0,3.0,78,0.00,,,0.00,Meteo,2013-02-12 01:16:00,
2013-02-11 19:21:00,23.0,17.0,29.86,NW,305,0.0,1.0,78,0.00,,,0.00,Meteo,2013-02-12 01:21:00,
2013-02-11 19:26:00,23.0,17.0,29.86,WNW,301,4.0,7.0,78,0.00,,,0.00,Meteo,2013-02-12 01:26:00,
2013-02-11 19:32:00,23.0,17.0,29.86,WNW,295,4.0,6.0,78,0.00,,,0.00,Meteo,2013-02-12 01:32:00,
2013-02-11 19:37:00,23.0,17.0,29.86,NW,312,1.0,3.0,78,0.00,,,0.00,Meteo,2013-02-12 01:37:00,
2013-02-11 19:42:00,23.0,17.0,29.86,WNW,289,2.0,5.0,79,0.00,,,0.00,Meteo,2013-02-12 01:42:00,
2013-02-11 19:47:00,23.0,17.0,29.86,NW,307,4.0,9.0,79,0.00,,,0.00,Meteo,2013-02-12 01:47:00,
2013-02-11 19:52:00,23.0,17.0,29.86,WNW,298,3.0,5.0,78,0.00,,,0.00,Meteo,2013-02-12 01:52:00,
2013-02-11 19:57:00,23.0,17.0,29.87,NW,326,2.0,5.0,79,0.00,,,0.00,Meteo,2013-02-12 01:57:00,
2013-02-11 20:02:00,23.0,17.0,29.87,NW,312,2.0,4.0,79,0.00,,,0.00,Meteo,2013-02-12 02:02:00,
2013-02-11 20:07:00,23.0,17.0,29.87,NW,319,1.0,2.0,78,0.00,,,0.00,Meteo,2013-02-12 02:07:00,
2013-02-11 20:12:00,23.0,17.0,29.87,NW,308,1.0,3.0,78,0.00,,,0.00,Meteo,2013-02-12 02:12:00,
2013-02-11 20:17:00,23.0,17.0,29.87,NW,315,3.0,5.0,77,0.00,,,0.00,Meteo,2013-02-12 02:17:00,
2013-02-11 20:22:00,23.0,17.0,29.87,NW,312,2.0,5.0,78,0.00,,,0.00,Meteo,2013-02-12 02:22:00,
2013-02-11 20:27:00,23.0,17.0,29.88,NW,316,1.0,2.0,78,0.00,,,0.00,Meteo,2013-02-12 02:27:00,
2013-02-11 20:32:00,23.0,17.0,29.88,WNW,287,0.0,1.0,79,0.00,,,0.00,Meteo,2013-02-12 02:32:00,
2013-02-11 20:37:00,23.0,17.0,29.88,NW,318,1.0,2.0,79,0.00,,,0.00,Meteo,2013-02-12 02:37:00,
2013-02-11 20:42:00,23.0,17.0,29.88,NW,312,1.0,2.0,78,0.00,,,0.00,Meteo,2013-02-12 02:42:00,
2013-02-11 20:47:00,23.0,17.0,29.88,WNW,288,0.0,1.0,78,0.00,,,0.00,Meteo,2013-02-12 02:47:00,
2013-02-11 20:52:00,23.0,17.0,29.88,WNW,296,3.0,4.0,79,0.00,,,0.00,Meteo,2013-02-12 02:52:00,
2013-02-11 20:57:00,23.0,17.0,29.88,North,0,0.0,0.0,79,0.00,,,0.00,Meteo,2013-02-12 02:57:00,
2013-02-11 21:02:00,23.0,17.0,29.89,West,275,0.0,1.0,78,0.00,,,0.00,Meteo,2013-02-12 03:02:00,
2013-02-11 21:07:00,23.0,17.0,29.89,NW,312,2.0,3.0,79,0.00,,,0.00,Meteo,2013-02-12 03:07:00,
2013-02-11 21:12:00,23.0,17.0,29.89,WNW,301,2.0,5.0,78,0.00,,,0.00,Meteo,2013-02-12 03:12:00,
2013-02-11 21:17:00,23.0,17.0,29.89,WSW,256,1.0,2.0,77,0.00,,,0.00,Meteo,2013-02-12 03:17:00,
2013-02-11 21:22:00,23.0,17.0,29.90,WNW,300,0.0,1.0,78,0.00,,,0.00,Meteo,2013-02-12 03:22:00,
2013-02-11 21:27:00,23.0,17.0,29.90,West,270,1.0,3.0,77,0.00,,,0.00,Meteo,2013-02-12 03:27:00,
2013-02-11 21:32:00,23.0,17.0,29.90,NW,317,1.0,3.0,78,0.00,,,0.00,Meteo,2013-02-12 03:32:00,
2013-02-11 21:37:00,23.0,17.0,29.90,West,265,1.0,4.0,79,0.00,,,0.00,Meteo,2013-02-12 03:37:00,
2013-02-11 21:42:00,23.0,17.0,29.90,NW,310,1.0,2.0,78,0.00,,,0.00,Meteo,2013-02-12 03:42:00,
2013-02-11 21:47:00,23.0,17.0,29.90,WNW,296,2.0,5.0,78,0.00,,,0.00,Meteo,2013-02-12 03:47:00,
2013-02-11 21:52:00,22.0,16.0,29.90,NNW,330,2.0,3.0,78,0.00,,,0.00,Meteo,2013-02-12 03:52:00,
2013-02-11 21:58:00,22.0,16.0,29.90,NW,312,2.0,4.0,78,0.00,,,0.00,Meteo,2013-02-12 03:58:00,
2013-02-11 22:03:00,22.0,16.0,29.90,WNW,300,2.0,4.0,78,0.00,,,0.00,Meteo,2013-02-12 04:03:00,
2013-02-11 22:08:00,22.0,16.0,29.90,WNW,296,0.0,1.0,78,0.00,,,0.00,Meteo,2013-02-12 04:08:00,
2013-02-11 22:13:00,22.0,16.0,29.90,NW,312,1.0,2.0,79,0.00,,,0.00,Meteo,2013-02-12 04:13:00,
2013-02-11 22:18:00,22.0,16.0,29.90,NW,315,1.0,2.0,79,0.00,,,0.00,Meteo,2013-02-12 04:18:00,
2013-02-11 22:23:00,22.0,16.0,29.90,NW,326,1.0,2.0,79,0.00,,,0.00,Meteo,2013-02-12 04:23:00,
2013-02-11 22:28:00,22.0,16.0,29.91,North,0,0.0,0.0,79,0.00,,,0.00,Meteo,2013-02-12 04:28:00,
2013-02-11 22:33:00,22.0,16.0,29.91,North,0,0.0,0.0,79,0.00,,,0.00,Meteo,2013-02-12 04:33:00,
2013-02-11 22:38:00,22.0,16.0,29.91,North,0,0.0,0.0,79,0.00,,,0.00,Meteo,2013-02-12 04:38:00,
2013-02-11 22:43:00,22.0,16.0,29.91,NW,315,1.0,3.0,78,0.00,,,0.00,Meteo,2013-02-12 04:43:00,
2013-02-11 22:48:00,22.0,16.0,29.91,NNW,328,2.0,3.0,78,0.00,,,0.00,Meteo,2013-02-12 04:48:00,
2013-02-11 22:53:00,22.0,16.0,29.91,WNW,296,1.0,3.0,78,0.00,,,0.00,Meteo,2013-02-12 04:53:00,
2013-02-11 22:58:00,22.0,16.0,29.91,North,0,0.0,0.0,78,0.00,,,0.00,Meteo,2013-02-12 04:58:00,
2013-02-11 23:00:00,22.0,16.0,29.91,WNW,292,0.0,1.0,78,0.00,,,0.00,Meteo,2013-02-12 05:00:00,
2013-02-11 23:03:00,22.0,16.0,29.91,WSW,249,0.0,1.0,78,0.00,,,0.00,Meteo,2013-02-12 05:03:00,
2013-02-11 23:04:00,22.0,16.0,29.91,WNW,284,1.0,2.0,78,0.00,,,0.00,Meteo,2013-02-12 05:04:00,
2013-02-11 23:09:00,22.0,16.0,29.92,North,0,0.0,0.0,78,0.00,,,0.00,Meteo,2013-02-12 05:09:00,
2013-02-11 23:14:00,22.0,16.0,29.92,North,0,0.0,0.0,78,0.00,,,0.00,Meteo,2013-02-12 05:14:00,
2013-02-11 23:19:00,22.0,16.0,29.92,North,0,0.0,0.0,79,0.00,,,0.00,Meteo,2013-02-12 05:19:00,
2013-02-11 23:24:00,22.0,17.0,29.92,North,0,0.0,0.0,80,0.00,,,0.00,Meteo,2013-02-12 05:24:00,
2013-02-11 23:29:00,22.0,17.0,29.92,WNW,285,0.0,2.0,80,0.00,,,0.00,Meteo,2013-02-12 05:29:00,
2013-02-11 23:34:00,22.0,17.0,29.92,SW,236,1.0,1.0,81,0.00,,,0.00,Meteo,2013-02-12 05:34:00,
2013-02-11 23:39:00,22.0,17.0,29.92,SW,214,1.0,2.0,80,0.00,,,0.00,Meteo,2013-02-12 05:39:00,
2013-02-11 23:44:00,22.0,17.0,29.92,North,0,0.0,0.0,81,0.00,,,0.00,Meteo,2013-02-12 05:44:00,
2013-02-11 23:49:00,22.0,17.0,29.92,SW,223,1.0,2.0,81,0.00,,,0.00,Meteo,2013-02-12 05:49:00,
2013-02-11 23:54:00,22.0,17.0,29.92,SSW,209,0.0,1.0,81,0.00,,,0.00,Meteo,2013-02-12 05:54:00,
2013-02-11 23:59:00,22.0,17.0,29.92,North,0,0.0,0.0,81,0.00,,,0.00,Meteo,2013-02-12 05:59:00,